Watsonville, CA

10:42 AM PST on December 06, 2019 (GMT -0800)
Watsonville Municipal

Weather History for KWVI - August, 2019

Change the Weather History Date:

Thursday, August 22, 2019

  Actual Average Record
Temperature  
Mean Temperature 68 °F 64 °F  
Max Temperature 78 °F 75 °F 80 °F (1999)
Min Temperature 58 °F 53 °F 48 °F (2010)
Degree Days  
Heating Degree Days 0    
Month to date heating degree days 11  
Since 1 June heating degree days 149  
Since 1 July heating degree days 58  
Cooling Degree Days 3    
Month to date cooling degree days 39  
Year to date cooling degree days 93  
Since 1 June cooling degree days 93  
Growing Degree Days 19 (Base 50)    
Moisture  
Dew Point 61 °F    
Average Humidity 80    
Maximum Humidity 100    
Minimum Humidity 60    
Precipitation  
Precipitation 0.00 in - 0.01 in (1962)
Month to date precipitation 0.02  
Year to date precipitation 22.78  
Sea Level Pressure  
Sea Level Pressure 29.82 in    
Wind  
Wind Speed 5 mph (SE)    
Max Wind Speed 13 mph    
Max Gust Speed 16 mph    
Visibility 6 miles    
Events Fog    
T = Trace of Precipitation, MM = Missing Value Source: NWS Daily Summary

Daily Weather History Graph

Daily Weather History Graph

Search for Another Location

Airport or City:

Astronomy

Aug. 22, 2019 Rise Set
Actual Time 6:29 AM PDT 7:49 PM PDT
Civil Twilight 6:02 AM PDT 8:16 PM PDT
Nautical Twilight 5:30 AM PDT 8:49 PM PDT
Astronomical Twilight 4:56 AM PDT 9:22 PM PDT
Moon 11:53 PM PDT (8/22) 1:00 PM PDT (8/22)
Length of Visible Light 14h 14m
Length of Day
13h 19m
Waning Gibbous, 58% of the Moon is Illuminated
Aug 22
Waning Gibbous
Aug 23
Last Quarter
Aug 30
New
Sep 5
First Quarter
Sep 13
Full

Hourly Weather History & Observations

Time (PDT) Temp. Dew Point Humidity Pressure Visibility Wind Dir Wind Speed Gust Speed Precip Events Conditions
12:05 AM 64.9 °F 61.0 °F 87% 29.90 in 10.0 mi East 4.6 mph - N/A   Mostly Cloudy
12:53 AM 66.0 °F 61.0 °F 84% 29.89 in 10.0 mi Calm Calm - N/A   Overcast
1:53 AM 64.9 °F 61.0 °F 87% 29.87 in 10.0 mi SE 4.6 mph - N/A   Overcast
2:53 AM 64.0 °F 61.0 °F 90% 29.86 in 10.0 mi ESE 4.6 mph - N/A   Overcast
3:53 AM 63.0 °F 61.0 °F 93% 29.84 in 4.0 mi ESE 4.6 mph - N/A   Overcast
4:46 AM 63.0 °F 61.0 °F 93% 29.84 in 2.5 mi Calm Calm - N/A   Overcast
4:53 AM 63.0 °F 62.1 °F 97% 29.83 in 3.0 mi ESE 3.5 mph - N/A   Overcast
5:02 AM 63.0 °F 62.1 °F 97% 29.83 in 1.8 mi East 4.6 mph - N/A   Overcast
5:10 AM 63.0 °F 62.1 °F 97% 29.83 in 1.0 mi ENE 3.5 mph - N/A   Overcast
5:28 AM 63.0 °F 61.0 °F 93% 29.83 in 0.5 mi Calm Calm - N/A Fog Fog
5:43 AM 63.0 °F 61.0 °F 93% 29.83 in 1.0 mi NE 3.5 mph - N/A   Mist
5:53 AM 63.0 °F 62.1 °F 97% 29.83 in 1.2 mi Calm Calm - N/A   Overcast
6:19 AM 63.0 °F 62.1 °F 97% 29.83 in 1.5 mi Calm Calm - N/A   Overcast
6:32 AM 63.0 °F 62.1 °F 97% 29.83 in 2.0 mi Calm Calm - N/A   Overcast
6:40 AM 63.0 °F 62.1 °F 97% 29.83 in 1.5 mi Calm Calm - N/A   Overcast
6:53 AM 63.0 °F 61.0 °F 93% 29.83 in 1.0 mi Calm Calm - N/A   Overcast
7:01 AM 63.0 °F 62.1 °F 97% 29.83 in 2.0 mi Calm Calm - N/A   Overcast
7:09 AM 63.0 °F 62.1 °F 97% 29.83 in 3.0 mi Calm Calm - N/A   Overcast
7:16 AM 63.0 °F 62.1 °F 97% 29.84 in 2.5 mi Calm Calm - N/A   Overcast
7:32 AM 63.0 °F 62.1 °F 97% 29.84 in 1.8 mi Calm Calm - N/A   Overcast
7:40 AM 63.0 °F 62.1 °F 97% 29.84 in 1.0 mi Calm Calm - N/A   Overcast
7:53 AM 63.0 °F 62.1 °F 97% 29.84 in 1.2 mi Calm Calm - N/A   Overcast
8:04 AM 63.0 °F 62.1 °F 97% 29.84 in 0.5 mi Calm Calm - N/A Fog Fog
8:34 AM 64.0 °F 62.1 °F 93% 29.84 in 1.2 mi Calm Calm - N/A   Overcast
8:41 AM 64.0 °F 62.1 °F 93% 29.84 in 1.8 mi Calm Calm - N/A   Overcast
8:46 AM 64.0 °F 62.1 °F 93% 29.84 in 3.0 mi Calm Calm - N/A   Overcast
8:53 AM 64.0 °F 62.1 °F 93% 29.84 in 5.0 mi Calm Calm - N/A   Overcast
9:45 AM 68.0 °F 62.1 °F 81% 29.84 in 10.0 mi Calm Calm - N/A   Overcast
9:53 AM 68.0 °F 62.1 °F 81% 29.84 in 10.0 mi SW 3.5 mph - N/A   Overcast
10:07 AM 70.0 °F 63.0 °F 78% 29.83 in 10.0 mi Variable 3.5 mph - N/A   Overcast
10:53 AM 72.0 °F 62.1 °F 71% 29.83 in 10.0 mi South 6.9 mph - N/A   Scattered Clouds
11:53 AM 73.0 °F 62.1 °F 68% 29.84 in 10.0 mi SSW 8.1 mph - N/A   Clear
12:53 PM 77.0 °F 63.0 °F 62% 29.82 in 10.0 mi South 6.9 mph - N/A   Clear
1:53 PM 75.9 °F 62.1 °F 62% 29.80 in 10.0 mi South 10.4 mph - N/A   Clear
2:53 PM 77.0 °F 62.1 °F 60% 29.78 in 10.0 mi South 10.4 mph - N/A   Clear
3:53 PM 75.0 °F 61.0 °F 62% 29.77 in 10.0 mi South 8.1 mph - N/A   Clear
4:53 PM 68.0 °F 59.0 °F 73% 29.76 in 10.0 mi SSE 11.5 mph - N/A   Clear
5:53 PM 68.0 °F 57.9 °F 70% 29.75 in 9.0 mi SE 11.5 mph - N/A   Clear
6:32 PM 66.0 °F 57.9 °F 75% 29.76 in 8.0 mi SSE 6.9 mph - N/A   Partly Cloudy
6:53 PM 64.9 °F 57.0 °F 75% 29.76 in 8.0 mi SE 9.2 mph - N/A   Partly Cloudy
7:10 PM 63.0 °F 57.0 °F 81% 29.76 in 8.0 mi SSE 9.2 mph - N/A   Partly Cloudy
7:53 PM 62.1 °F 57.0 °F 84% 29.76 in 7.0 mi SE 8.1 mph - N/A   Mostly Cloudy
8:53 PM 61.0 °F 57.0 °F 87% 29.77 in 8.0 mi ESE 6.9 mph - N/A   Overcast
9:53 PM 62.1 °F 57.0 °F 84% 29.77 in 8.0 mi East 4.6 mph - N/A   Overcast
10:53 PM 61.0 °F 57.0 °F 87% 29.77 in 8.0 mi East 5.8 mph - N/A   Overcast
11:53 PM 61.0 °F 57.0 °F 87% 29.76 in 8.0 mi Calm Calm - N/A   Overcast